Weather History for Litchfield, MN

Change the Weather History Date:

Tuesday, May 8, 2012

  Actual Average Record
Temperature  
Mean Temperature 52 °F -  
Max Temperature 57 °F 68 °F 92 °F (1990)
Min Temperature 48 °F 43 °F 26 °F (1955)
Degree Days  
Heating Degree Days 12    
Growing Degree Days 2 (Base 50)    
Moisture  
Dew Point 47 °F    
Average Humidity 83    
Maximum Humidity 94    
Minimum Humidity 67    
Precipitation  
Precipitation 0.10 in - - ()
Sea Level Pressure  
Sea Level Pressure 29.91 in    
Wind  
Wind Speed 8 mph (WNW)    
Max Wind Speed 15 mph    
Max Gust Speed 20 mph    
Visibility 10 miles    
Events Rain    
Averages and records for this station are not official NWS values.
T = Trace of Precipitation, MM = Missing Value Source: NWS Daily Summary

Daily Weather History Graph

Daily Weather History Graph

Search for Another Location

Airport:

Trip Planner

Search our weather history database for the weather conditions in past years. The results will help you decide how hot, cold, wet, or windy it might be!

Date:

Astronomy

May. 08, 2012 Rise Set
Actual Time 5:56 AM CDT 8:33 PM CDT
Civil Twilight 5:23 AM CDT 9:06 PM CDT
Nautical Twilight 4:41 AM CDT 9:48 PM CDT
Astronomical Twilight 3:53 AM CDT 10:37 PM CDT
Moon 11:47 PM CDT (5/8) 8:01 AM CDT (5/8)
Length of Visible Light 15h 43m
Length of Day
14h 36m
Waning Gibbous, 90% of the Moon is Illuminated
May 8
Waning Gibbous
May 12
Last Quarter
May 20
New
May 28
First Quarter
Jun 4
Full

Hourly Weather History & Observations

Time (CDT) Temp. Dew Point Humidity Pressure Visibility Wind Dir Wind Speed Gust Speed Precip Events Conditions
12:33 AM 50.0 °F 42.8 °F 76% 29.90 in 10.0 mi WSW 5.8 mph - N/A   Scattered Clouds
12:53 AM 50.0 °F 44.6 °F 82% 29.90 in 10.0 mi West 5.8 mph - N/A   Scattered Clouds
1:14 AM 50.0 °F 44.6 °F 82% 29.90 in 10.0 mi West 6.9 mph - N/A   Scattered Clouds
1:33 AM 50.0 °F 44.6 °F 82% 29.90 in 10.0 mi West 8.1 mph - N/A   Scattered Clouds
1:53 AM 48.2 °F 44.6 °F 87% 29.90 in 10.0 mi West 6.9 mph - N/A   Scattered Clouds
2:13 AM 48.2 °F 44.6 °F 87% 29.90 in 10.0 mi West 6.9 mph - N/A   Scattered Clouds
2:33 AM 48.2 °F 44.6 °F 87% 29.89 in 10.0 mi West 5.8 mph - N/A   Scattered Clouds
2:53 AM 48.2 °F 44.6 °F 87% 29.89 in 10.0 mi WSW 5.8 mph - N/A   Scattered Clouds
3:13 AM 48.2 °F 44.6 °F 87% 29.89 in 10.0 mi West 4.6 mph - N/A   Scattered Clouds
3:33 AM 48.2 °F 44.6 °F 87% 29.89 in 10.0 mi West 6.9 mph - N/A   Mostly Cloudy
3:53 AM 48.2 °F 44.6 °F 87% 29.89 in 10.0 mi West 5.8 mph - N/A   Scattered Clouds
4:12 AM 48.2 °F 44.6 °F 87% 29.88 in 10.0 mi West 6.9 mph - N/A   Mostly Cloudy
4:33 AM 48.2 °F 44.6 °F 87% 29.88 in 10.0 mi West 8.1 mph - N/A   Mostly Cloudy
4:53 AM 48.2 °F 44.6 °F 87% 29.88 in 10.0 mi West 8.1 mph - N/A   Mostly Cloudy
5:12 AM 48.2 °F 44.6 °F 87% 29.87 in 10.0 mi West 6.9 mph - N/A   Overcast
5:33 AM 48.2 °F 44.6 °F 87% 29.87 in 10.0 mi West 6.9 mph - N/A   Overcast
5:53 AM 48.2 °F 46.4 °F 93% 29.87 in 10.0 mi West 9.2 mph - N/A   Overcast
6:13 AM 48.2 °F 46.4 °F 93% 29.87 in 10.0 mi West 8.1 mph - N/A   Overcast
6:33 AM 48.2 °F 46.4 °F 93% 29.88 in 10.0 mi WNW 9.2 mph - N/A   Overcast
6:53 AM 50.0 °F 46.4 °F 87% 29.88 in 10.0 mi WNW 9.2 mph - N/A   Overcast
7:12 AM 50.0 °F 46.4 °F 87% 29.88 in 10.0 mi WNW 12.7 mph 16.1 mph N/A   Overcast
7:53 AM 51.8 °F 46.4 °F 82% 29.89 in 10.0 mi WNW 11.5 mph 19.6 mph N/A   Overcast
8:13 AM 51.8 °F 46.4 °F 82% 29.89 in 10.0 mi WNW 11.5 mph 16.1 mph N/A   Overcast
8:33 AM 51.8 °F 46.4 °F 82% 29.89 in 10.0 mi WNW 11.5 mph - N/A   Scattered Clouds
8:53 AM 51.8 °F 46.4 °F 82% 29.90 in 10.0 mi NW 10.4 mph - N/A   Scattered Clouds
9:13 AM 51.8 °F 44.6 °F 76% 29.90 in 10.0 mi NW 10.4 mph 19.6 mph N/A   Scattered Clouds
9:33 AM 51.8 °F 46.4 °F 82% 29.90 in 10.0 mi NW 11.5 mph - N/A   Scattered Clouds
9:53 AM 51.8 °F 44.6 °F 76% - 10.0 mi NW 9.2 mph - N/A   Mostly Cloudy
10:13 AM 51.8 °F 44.6 °F 76% 29.90 in 10.0 mi NW 11.5 mph - N/A   Overcast
10:33 AM 51.8 °F 44.6 °F 76% 29.90 in 10.0 mi NW 8.1 mph - N/A   Overcast
10:53 AM 51.8 °F 46.4 °F 82% 29.91 in 7.0 mi NNW 8.1 mph - N/A   Overcast
11:13 AM 51.8 °F 46.4 °F 82% 29.90 in 10.0 mi NNW 6.9 mph - N/A Rain Light Rain
11:33 AM 53.6 °F 48.2 °F 82% 29.90 in 7.0 mi NNW 9.2 mph - N/A Rain Light Rain
11:53 AM 50.0 °F 46.4 °F 87% 29.91 in 7.0 mi NNW 5.8 mph - 0.02 in Rain Light Rain
12:13 PM 50.0 °F 48.2 °F 94% 29.91 in 5.0 mi NW 6.9 mph - 0.02 in Rain Light Rain
12:33 PM 50.0 °F 46.4 °F 87% 29.92 in 7.0 mi WNW 5.8 mph - 0.05 in Rain Light Rain
12:53 PM 48.2 °F 46.4 °F 93% 29.92 in 10.0 mi NW 10.4 mph - N/A Rain Light Rain
1:13 PM 50.0 °F 48.2 °F 94% 29.91 in 10.0 mi NW 5.8 mph - 0.01 in Rain Light Rain
1:33 PM 51.8 °F 48.2 °F 88% 29.91 in 10.0 mi WNW 10.4 mph - 0.01 in   Light Drizzle
1:53 PM 51.8 °F 46.4 °F 82% 29.91 in 10.0 mi WNW 9.2 mph - N/A Rain Light Rain
2:13 PM 51.8 °F 48.2 °F 88% 29.91 in 7.0 mi WNW 9.2 mph - N/A   Scattered Clouds
2:32 PM 51.8 °F 46.4 °F 82% 29.91 in 10.0 mi West 5.8 mph - N/A   Scattered Clouds
2:53 PM 53.6 °F 48.2 °F 82% 29.91 in 5.0 mi NW 8.1 mph - 0.01 in Rain Light Rain
3:13 PM 51.8 °F 48.2 °F 88% 29.91 in 10.0 mi WNW 12.7 mph 17.3 mph 0.01 in   Scattered Clouds
3:32 PM 51.8 °F 48.2 °F 88% 29.91 in 10.0 mi West 5.8 mph - 0.01 in   Mostly Cloudy
3:53 PM 55.4 °F 48.2 °F 77% 29.90 in 10.0 mi West 6.9 mph - N/A   Scattered Clouds
4:13 PM 55.4 °F 48.2 °F 77% 29.90 in 10.0 mi WNW 9.2 mph 18.4 mph N/A   Scattered Clouds
4:33 PM 57.2 °F 46.4 °F 67% 29.90 in 10.0 mi NNW 15.0 mph - N/A   Scattered Clouds
4:53 PM 57.2 °F 46.4 °F 67% 29.90 in 10.0 mi NNW 15.0 mph - N/A   Clear
5:12 PM 57.2 °F 46.4 °F 67% 29.90 in 10.0 mi NW 10.4 mph - N/A   Clear
5:33 PM 57.2 °F 46.4 °F 67% 29.90 in 10.0 mi NW 9.2 mph 16.1 mph N/A   Clear
5:53 PM 57.2 °F 46.4 °F 67% 29.91 in 10.0 mi WNW 11.5 mph 17.3 mph N/A   Clear
6:12 PM 57.2 °F 48.2 °F 72% 29.91 in 10.0 mi WNW 8.1 mph - N/A   Scattered Clouds
6:33 PM 57.2 °F 46.4 °F 67% 29.91 in 10.0 mi NW 10.4 mph 16.1 mph N/A   Mostly Cloudy
6:53 PM 57.2 °F 46.4 °F 67% 29.91 in 10.0 mi NW 8.1 mph - N/A   Scattered Clouds
7:12 PM 57.2 °F 46.4 °F 67% 29.91 in 10.0 mi NW 9.2 mph - N/A   Scattered Clouds
7:33 PM 57.2 °F 46.4 °F 67% 29.92 in 10.0 mi NW 9.2 mph - N/A   Scattered Clouds
7:53 PM 55.4 °F 46.4 °F 72% 29.93 in 10.0 mi North 9.2 mph - N/A   Scattered Clouds
8:13 PM 53.6 °F 46.4 °F 77% 29.93 in 10.0 mi NNW 6.9 mph - N/A   Scattered Clouds
8:33 PM 53.6 °F 48.2 °F 82% 29.95 in 10.0 mi NW 8.1 mph - N/A   Clear
8:53 PM 53.6 °F 48.2 °F 82% 29.95 in 10.0 mi NW 6.9 mph - N/A   Scattered Clouds
9:13 PM 51.8 °F 48.2 °F 88% 29.96 in 10.0 mi NW 9.2 mph - N/A   Scattered Clouds
9:33 PM 51.8 °F 48.2 °F 88% 29.97 in 10.0 mi NW 9.2 mph - N/A   Scattered Clouds
9:53 PM 51.8 °F 48.2 °F 88% 29.98 in 10.0 mi NW 9.2 mph - N/A   Scattered Clouds
10:13 PM 51.8 °F 48.2 °F 88% 29.98 in 10.0 mi NW 9.2 mph - N/A   Mostly Cloudy
10:33 PM 51.8 °F 50.0 °F 94% 29.98 in 10.0 mi NW 8.1 mph - N/A   Overcast
10:53 PM 51.8 °F 50.0 °F 94% 29.99 in 10.0 mi NNW 9.2 mph - N/A   Overcast
11:13 PM 51.8 °F 50.0 °F 94% 29.99 in 10.0 mi NNW 8.1 mph - N/A   Overcast
11:33 PM 51.8 °F 50.0 °F 94% 30.00 in 10.0 mi NNW 8.1 mph - N/A   Overcast
11:52 PM 51.8 °F 48.2 °F 88% 30.00 in 10.0 mi North 9.2 mph - N/A   Overcast